Location: Grisols
(45.0093°N, 3.1167°E)
Time: 04:30:04
(UTC+00:00)

ASTEX 1 - Pass Details

Date: 21 October 2019
Orbit: 722 x 742 km, 92.7° (Epoch: 13 November)

Event Time Altitude Azimuth Distance (km) Brightness Sun altitude
Rises 18:03:24 0° 3° (N) 3,169 6.6 -13.1°
Reaches altitude 10° 18:05:42 10° 1° (N) 2,246 5.9 -13.5°
Maximum altitude 18:10:38 69° 279° (W) 790 3.8 -14.4°
Drops below altitude 10° 18:15:34 10° 197° (SSW) 2,241 6.1 -15.3°
Sets 18:17:52 0° 195° (SSW) 3,161 6.9 -15.7°
